Regional Weather Roundup
Issued by NWS

Home | Current Version | Previous Version | Graphics & Text | Print | Product List | Glossary On
Versions: 1 2 3 4 5 6 7 8 9 10 11 12 13 14 15 16 17 18 19 20 21 22 23 24 25 26 27 28 29 30 31 32 33 34 35 36 37 38 39 40 41 42 43 44 45 46 47 48 49 50
297
ASUS44 KLIX 011305
RWRLA
LOUISIANA WEATHER ROUNDUP
NATIONAL WEATHER SERVICE NEW ORLEANS LA
800 AM CDT WED OCT 01 2014

NOTE: "FAIR" INDICATES FEW OR NO CLOUDS BELOW 12,000 FEET WITH NO
      SIGNIFICANT WEATHER AND/OR OBSTRUCTIONS TO VISIBILITY.
      SKY/WX - SKY CONDITION AND SIGNIFICANT WEATHER.
      TMP - AIR TEMPERATURE.    DP   - DEWPOINT TEMPERATURE.
      RH  - RELATIVE HUMIDITY.  PRES - PRESSURE.
      HX  - HEAT INDEX.         WCI  - WIND CHILL INDEX.

*  THESE STATIONS ARE NOT NWS OR FAA STATIONS AND ARE NOT UNDER
   NWS QUALITY CONTROL.

LAZ040-048-061>063-065-066-069-011400-
SOUTHEAST LOUISIANA

CITY           SKY/WX    TMP DP  RH WIND       PRES   REMARKS
N.O. AUDUBON   NOT AVBL
N.O. INTL ARPT PTSUNNY   78  72  81 E7        29.91R
N.O. LAKEFRONT SUNNY     78  73  84 E5        29.92R
N.O. DOWNTOWN* FAIR      79  70  73 SE6       29.92R
SLIDELL        PTSUNNY   72  69  90 CALM      29.92R
BATON ROUGE    CLOUDY    73  72  96 E5        29.90R FOG
BOOTHVILLE     SUNNY     79  74  84 E6        29.92R
BELLE CHASSE   PTSUNNY   77  72  84 E3        29.91R
BOGALUSA*      FAIR      69  66  91 CALM      29.95R FOG
GALLIANO*      NOT AVBL
NEW ROADS*     FAIR      74  73  98 CALM      29.90R FOG
GONZALES*      FAIR      74  74 100 CALM      29.90R
HAMMOND*       SUNNY     75  70  83 E5        29.93R
HOUMA*         MOSUNNY  N/A N/A N/A NE7       29.90R FOG
PORT FOURCHON* PTSUNNY   81  75  83 SE8       29.94R

$$

LAZ041-044-053-054-011400-
SOUTHWEST LOUISIANA

CITY           SKY/WX    TMP DP  RH WIND       PRES   REMARKS
LAKE CHARLES   PTSUNNY   76  74  93 E5        29.85R
LAFAYETTE      PTSUNNY   76  75  97 VRB5      29.88R
PATTERSON      CLOUDY    75  73  94 E7        29.90S
SALT POINT       N/A     79  76  90 CALM      29.87R
NEW IBERIA     CLOUDY    77  74  90 E5        29.89R
CHENAULT AIRPK PTSUNNY   75  73  94 E5        29.86R

$$

LAZ027-028-011400-
CENTRAL LOUISIANA

CITY           SKY/WX    TMP DP  RH WIND       PRES   REMARKS
FORT POLK      CLOUDY    75  74  95 SE6       29.88R
ALEXANDRIA INT CLOUDY    75  73  93 SE9       29.87R FOG
ALEXANDRIA     CLOUDY    74  73  97 SE5       29.89R

$$

LAZ001-002-011400-
NORTHWEST LOUISIANA

CITY           SKY/WX    TMP DP  RH WIND       PRES   REMARKS
SHREVEPORT     MOCLDY    74  72  93 SE5       29.85S FOG
BARKSDALE AFB  CLOUDY    73  73 100 SE5       29.86R
DTN SHREVEPORT PTCLDY    73  70  90 SE6       29.86R

$$

LAZ014-016-011400-
NORTHEAST LOUISIANA

CITY           SKY/WX    TMP DP  RH WIND       PRES   REMARKS
MONROE         SUNNY     73  71  93 S3        29.90R
TALLULAH       SUNNY     74  69  85 SE7       29.91R

$$




USA.gov is the U.S. government's official web portal to all federal, state and local government web resources and services.